Hourly Weather Ruszczyzna

Today, 10 April, Saturday

Time Temperature Precipitation Wind Pressure Humidity
00:00 +2°C° 0 mm 5 mps 745 mmHg 65%
01:00 +1°C° 0 mm 5 mps 745 mmHg 67%
02:00 +1°C° 0 mm 5 mps 745 mmHg 68%
03:00 +1°C° 0 mm 5 mps 744 mmHg 67%
04:00 +1°C° 0 mm 5 mps 744 mmHg 66%
05:00 +1°C° 0 mm 5 mps 744 mmHg 65%
06:00 +2°C° 0 mm 5 mps 744 mmHg 64%
07:00 +3°C° 0 mm 5 mps 744 mmHg 62%
08:00 +4°C° 0 mm 6 mps 744 mmHg 61%
09:00 +7°C° 0 mm 6 mps 744 mmHg 56%
10:00 +9°C° 0 mm 6 mps 744 mmHg 52%
11:00 +10°C° 0 mm 7 mps 744 mmHg 48%
12:00 +11°C° 0 mm 7 mps 744 mmHg 45%
13:00 +12°C° 0 mm 7 mps 744 mmHg 43%
14:00 +14°C° 0 mm 7 mps 744 mmHg 40%
15:00 +14°C° 0 mm 6 mps 744 mmHg 43%
16:00 +14°C° 0 mm 6 mps 744 mmHg 46%
17:00 +13°C° 0 mm 6 mps 744 mmHg 49%
18:00 +12°C° 0 mm 5 mps 744 mmHg 56%
19:00 +10°C° 0 mm 4 mps 744 mmHg 62%
20:00 +7°C° 0 mm 4 mps 745 mmHg 68%
21:00 +7°C° 0 mm 4 mps 745 mmHg 70%
22:00 +6°C° 0 mm 4 mps 745 mmHg 72%
23:00 +6°C° 0 mm 4 mps 745 mmHg 74%

Tomorrow, 11 April, Sunday

Time Temperature Precipitation Wind Pressure Humidity
00:00 +5°C° 0 mm 4 mps 745 mmHg 75%
01:00 +5°C° 0 mm 3 mps 746 mmHg 76%
02:00 +5°C° 0 mm 3 mps 746 mmHg 76%
03:00 +5°C° 0 mm 3 mps 746 mmHg 77%
04:00 +4°C° 0 mm 3 mps 746 mmHg 78%
05:00 +4°C° 0 mm 3 mps 746 mmHg 78%
06:00 +5°C° 0 mm 4 mps 746 mmHg 74%
07:00 +7°C° 0 mm 4 mps 746 mmHg 70%
08:00 +8°C° 0 mm 4 mps 746 mmHg 66%
09:00 +10°C° 0 mm 5 mps 747 mmHg 60%
10:00 +12°C° 0 mm 5 mps 747 mmHg 54%
11:00 +14°C° 0 mm 5 mps 747 mmHg 48%
12:00 +15°C° 0 mm 6 mps 747 mmHg 46%
13:00 +15°C° 0 mm 6 mps 746 mmHg 44%
14:00 +16°C° 0 mm 6 mps 746 mmHg 41%
15:00 +16°C° 0 mm 6 mps 746 mmHg 43%
16:00 +16°C° 0 mm 5 mps 745 mmHg 46%
17:00 +16°C° 0 mm 5 mps 745 mmHg 48%
18:00 +14°C° 0 mm 5 mps 745 mmHg 53%
19:00 +12°C° 0 mm 5 mps 746 mmHg 57%
20:00 +10°C° 0 mm 5 mps 746 mmHg 62%
21:00 +9°C° 0 mm 5 mps 746 mmHg 61%
22:00 +9°C° 0 mm 5 mps 746 mmHg 59%
23:00 +8°C° 0 mm 5 mps 746 mmHg 57%

Day after tomorrow, 12 April, Monday

Time Temperature Precipitation Wind Pressure Humidity
00:00 +7°C° 0 mm 5 mps 746 mmHg 59%
01:00 +7°C° 0 mm 4 mps 745 mmHg 61%
02:00 +6°C° 0 mm 4 mps 745 mmHg 63%
03:00 +6°C° 0 mm 4 mps 745 mmHg 65%
04:00 +6°C° 0 mm 4 mps 745 mmHg 67%
05:00 +6°C° 0 mm 4 mps 745 mmHg 68%
06:00 +7°C° 0 mm 4 mps 744 mmHg 67%
07:00 +8°C° 0 mm 5 mps 744 mmHg 66%
08:00 +9°C° 0 mm 5 mps 744 mmHg 65%
09:00 +10°C° 0 mm 5 mps 744 mmHg 60%
10:00 +13°C° 0 mm 6 mps 744 mmHg 55%
11:00 +15°C° 0 mm 6 mps 744 mmHg 51%
12:00 +15°C° 0 mm 5 mps 743 mmHg 51%
13:00 +15°C° 0 mm 5 mps 743 mmHg 52%
14:00 +17°C° 0 mm 4 mps 743 mmHg 53%
15:00 +16°C° 0 mm 3 mps 743 mmHg 57%
16:00 +15°C° 0 mm 2 mps 743 mmHg 62%
17:00 +14°C° 0 mm 1 mps 742 mmHg 67%
18:00 +14°C° 0 mm 1 mps 743 mmHg 68%
19:00 +13°C° 0 mm 1 mps 743 mmHg 69%
20:00 +13°C° 0 mm 2 mps 743 mmHg 71%
21:00 +13°C° 0 mm 1 mps 743 mmHg 73%
22:00 +12°C° 0 mm 1 mps 743 mmHg 74%
23:00 +12°C° 0 mm 1 mps 743 mmHg 76%

13 April, Tuesday

Time Temperature Precipitation Wind Pressure Humidity
00:00 +12°C° 0 mm 1 mps 742 mmHg 77%
01:00 +12°C° 0 mm 1 mps 742 mmHg 78%
02:00 +12°C° 0 mm 2 mps 742 mmHg 79%
03:00 +12°C° 0 mm 1 mps 742 mmHg 78%
04:00 +11°C° 0 mm 1 mps 742 mmHg 78%
05:00 +11°C° 0 mm 1 mps 742 mmHg 78%
06:00 +12°C° 0 mm 1 mps 742 mmHg 77%
07:00 +12°C° 0 mm 1 mps 742 mmHg 75%
08:00 +13°C° 0 mm 1 mps 742 mmHg 74%
09:00 +14°C° 0 mm 1 mps 742 mmHg 69%
10:00 +15°C° 0 mm 2 mps 742 mmHg 65%
11:00 +16°C° 0 mm 2 mps 742 mmHg 61%
12:00 +16°C° 0.1 mm 2 mps 742 mmHg 61%
13:00 +16°C° 0.1 mm 3 mps 742 mmHg 61%
14:00 +17°C° 0.1 mm 3 mps 741 mmHg 62%
15:00 +13°C° 0.1 mm 4 mps 741 mmHg 70%
16:00 +10°C° 0.1 mm 5 mps 741 mmHg 77%
17:00 +8°C° 0.1 mm 6 mps 741 mmHg 85%
18:00 +7°C° 0 mm 5 mps 741 mmHg 87%
19:00 +6°C° 0 mm 5 mps 741 mmHg 88%
20:00 +6°C° 0 mm 4 mps 742 mmHg 90%
21:00 +5°C° 0 mm 4 mps 741 mmHg 90%
22:00 +5°C° 0 mm 5 mps 741 mmHg 91%
23:00 +3°C° 0 mm 5 mps 741 mmHg 92%

14 April, Wednesday

Time Temperature Precipitation Wind Pressure Humidity
00:00 +4°C° 0 mm 4 mps 741 mmHg 92%
01:00 +3°C° 0 mm 4 mps 741 mmHg 92%
02:00 +3°C° 0 mm 4 mps 740 mmHg 93%
03:00 +1°C° 0.3 mm 5 mps 740 mmHg 93%
04:00 +1°C° 0.3 mm 5 mps 740 mmHg 94%
05:00 0°C° 0.3 mm 5 mps 740 mmHg 94%
06:00 0°C° 0.8 mm 5 mps 740 mmHg 95%
07:00 -2°C° 0.8 mm 6 mps 740 mmHg 96%
08:00 -2°C° 0.8 mm 6 mps 740 mmHg 96%
09:00 -2°C° 0.8 mm 6 mps 740 mmHg 97%
10:00 -2°C° 0.8 mm 6 mps 740 mmHg 97%
11:00 -2°C° 0.8 mm 6 mps 740 mmHg 97%
12:00 -2°C° 0.9 mm 6 mps 740 mmHg 97%
13:00 -2°C° 0.9 mm 6 mps 740 mmHg 98%
14:00 -2°C° 0.9 mm 6 mps 740 mmHg 98%
15:00 -2°C° 1.4 mm 6 mps 740 mmHg 98%
16:00 -3°C° 1.4 mm 6 mps 740 mmHg 98%
17:00 -3°C° 1.4 mm 7 mps 739 mmHg 98%
18:00 -3°C° 1.4 mm 6 mps 739 mmHg 98%
19:00 -3°C° 1.4 mm 6 mps 739 mmHg 98%
20:00 -3°C° 1.4 mm 6 mps 739 mmHg 98%
21:00 -3°C° 1.1 mm 6 mps 739 mmHg 98%
22:00 -3°C° 1.1 mm 6 mps 739 mmHg 98%
23:00 -3°C° 1.1 mm 6 mps 739 mmHg 98%

15 April, Thursday

Time Temperature Precipitation Wind Pressure Humidity
00:00 -3°C° 1.1 mm 6 mps 739 mmHg 98%
01:00 -3°C° 1.1 mm 7 mps 738 mmHg 98%
02:00 -3°C° 1.1 mm 7 mps 738 mmHg 98%
03:00 -3°C° 1.4 mm 7 mps 738 mmHg 98%
04:00 -3°C° 1.4 mm 7 mps 738 mmHg 98%
05:00 -3°C° 1.4 mm 7 mps 738 mmHg 98%
06:00 -3°C° 1.5 mm 6 mps 738 mmHg 98%
07:00 -3°C° 1.5 mm 6 mps 738 mmHg 98%
08:00 -3°C° 1.5 mm 6 mps 738 mmHg 99%
09:00 -3°C° 1 mm 6 mps 738 mmHg 99%
10:00 -3°C° 1 mm 6 mps 738 mmHg 99%
11:00 -3°C° 1 mm 6 mps 739 mmHg 99%
12:00 -3°C° 0.3 mm 6 mps 739 mmHg 99%
13:00 -3°C° 0.3 mm 6 mps 739 mmHg 99%
14:00 -3°C° 0.3 mm 6 mps 739 mmHg 99%
15:00 -3°C° 0.2 mm 6 mps 739 mmHg 99%
16:00 -3°C° 0.2 mm 6 mps 739 mmHg 99%
17:00 -3°C° 0.2 mm 6 mps 739 mmHg 98%
18:00 -3°C° 0.2 mm 6 mps 739 mmHg 98%
19:00 -3°C° 0.2 mm 6 mps 739 mmHg 98%
20:00 -3°C° 0.2 mm 6 mps 739 mmHg 98%
21:00 -3°C° 0.3 mm 6 mps 739 mmHg 98%
22:00 -3°C° 0.3 mm 6 mps 739 mmHg 98%
23:00 -3°C° 0.3 mm 6 mps 739 mmHg 98%
Show more